Location: Arrodets-la-Barthe
(43.0306°N, 0.2829°E)
Time: 14:25:35
(UTC+00:00)

BEESAT 3 - Visible Passes

Search period start: 21 March 2023 00:00
Search period end: 31 March 2023 00:00
Orbit: 414 x 441 km, 64.9° (Epoch: 21 March)

Date Brightness Start Highest point End Pass type
(mag) Time Alt. Az. Time Alt. Az. Time Alt. Az.
21 Mar ? 03:36:45 11° SE 03:37:42 12° ESE 03:39:08 10° E visible
21 Mar ? 05:09:58 12° SW 05:13:02 48° NW 05:16:25 10° NNE visible
22 Mar ? 04:28:04 35° SSW 04:29:22 80° ESE 04:32:51 10° NE visible
23 Mar ? 03:45:53 36° ESE 03:45:53 36° ESE 03:48:52 10° NE visible
23 Mar ? 05:19:04 10° W 05:21:31 19° NW 05:24:03 10° N visible
24 Mar ? 03:03:27 14° E 03:03:27 14° E 03:04:19 10° ENE visible
24 Mar ? 04:36:37 29° WNW 04:37:23 32° NW 04:40:33 10° NNE visible
25 Mar ? 03:53:56 48° N 03:53:56 48° N 03:56:39 10° NNE visible
26 Mar ? 03:11:02 21° NE 03:11:02 21° NE 03:12:21 10° NE visible
26 Mar ? 04:44:10 13° WNW 04:44:59 14° NW 04:46:53 10° N visible
27 Mar ? 04:01:02 22° NNW 04:01:02 22° NNW 04:03:10 10° N visible
28 Mar ? 03:17:43 19° NNE 03:17:43 19° NNE 03:18:55 10° NNE visible
29 Mar ? 02:34:12 11° NE 02:34:12 11° NE 02:34:17 10° NE visible
29 Mar ? 04:07:17 11° NW 04:07:17 11° NW 04:07:56 10° NNW visible
30 Mar ? 03:23:33 13° N 03:23:33 13° N 03:24:17 10° N visible
